Wind_Speed
14 14 14 11 10 12 14 15 15 15 15 15 15 15 15 14 14 13 13 13 13 14 14 14 13 12 11 10 11 13 15 17 18 19 21 22 19 18 19 15 11 9 8 8 6 4 5 7 8 5 5 7 8 9 8 9 10 7 4 5 7 7 8 7 8 9 9 10 10 15 18 13 13 16 18 17 20 24 24 26 24 24 29 28 26 28 27 24
13 14 14 12 11 11 13 14 15 15 15 15 16 16 16 16 15 15 14 15 15 15 16 16 16 14 13 12 12 14 17 18 20 25 25 22 19 20 18 10 5 8 8 6 3 4 6 7 8 7 8 8 9 10 9 8 9 7 4 6 8 7 9 11 13 14 12 12 13 17 20 17 15 18 19 15 17 22 21 22 25 27 28 27 24 26 29 30
12 14 15 14 13 11 11 13 14 15 15 15 16 16 16 16 16 16 16 16 16 16 17 17 17 17 15 13 13 14 16 18 22 26 22 16 13 11 11 10 5 11 7 5 3 6 8 8 8 8 9 9 10 11 10 8 6 8 7 6 8 8 11 15 18 18 18 18 15 17 20 19 19 22 20 15 17 19 18 18 20 26 28 26 24 26 28 28
13 14 15 15 15 12 11 12 13 14 15 15 16 16 16 16 16 16 17 17 17 18 18 18 18 18 17 14 13 13 13 16 16 15 12 9 5 6 13 11 7 14 9 6 6 7 7 8 8 7 8 9 11 12 11 8 5 7 8 6 9 11 11 15 20 22 24 23 19 18 18 17 22 24 20 18 17 14 16 22 23 26 29 28 28 28 29 28
16 15 15 17 16 14 12 11 12 13 14 15 16 16 16 16 16 16 16 17 17 18 18 19 18 18 17 15 13 11 9 9 4 5 5 4 4 8 12 11 12 16 10 7 7 6 7 8 7 8 8 7 9 9 10 13 11 7 10 13 16 15 12 16 22 22 23 24 21 19 15 17 22 22 21 20 16 13 17 26 28 30 31 31 30 27 27 26
17 16 16 17 16 15 14 12 12 13 14 16 16 16 16 16 16 16 17 17 18 18 19 19 18 18 17 14 13 9 4 4 1 1 7 6 4 7 10 14 18 17 9 6 6 6 7 8 7 9 9 7 8 8 9 14 14 8 10 14 17 17 14 19 24 23 24 23 17 16 17 20 20 19 23 24 23 25 27 30 32 32 33 34 34 31 30 30
16 16 16 18 17 15 15 14 15 16 16 17 16 16 16 16 17 17 18 18 18 19 19 19 18 17 16 14 13 9 11 16 12 11 16 15 13 14 16 19 19 13 8 6 6 8 8 8 9 10 8 6 8 9 11 13 13 11 9 11 16 19 19 23 26 24 24 23 21 22 21 20 18 18 22 26 31 35 33 33 36 34 34 35 36 35 35 35
15 14 14 16 15 14 15 16 16 17 17 17 17 16 16 17 18 18 18 19 19 19 19 18 17 17 16 14 12 9 16 24 20 16 20 19 19 19 19 19 14 9 8 6 8 8 8 9 11 11 8 7 9 10 11 11 10 10 11 13 16 19 20 23 24 24 25 25 26 26 21 19 23 22 22 28 35 36 34 34 36 36 35 36 37 37 36 37
12 13 13 13 13 12 14 15 16 17 17 18 18 17 17 17 18 18 18 19 19 19 19 18 18 18 16 13 9 8 17 21 15 15 18 17 18 15 13 12 9 9 8 7 9 9 9 9 10 9 7 9 10 10 11 9 6 8 13 15 15 17 20 23 24 26 28 26 25 22 17 21 26 22 22 32 36 36 37 36 37 37 37 37 38 38 38 39
12 13 12 13 13 12 12 14 15 16 17 18 18 17 18 17 18 19 19 19 19 19 19 19 19 17 14 11 6 6 15 14 9 14 15 13 14 11 10 9 9 9 8 9 9 10 11 10 11 9 8 10 10 10 12 10 9 13 18 19 18 19 23 25 25 29 29 26 27 21 16 22 25 17 16 27 32 33 34 34 37 37 37 39 39 39 39 39
14 14 14 14 14 12 11 13 14 16 17 19 17 17 18 18 18 19 19 20 20 19 19 20 19 17 13 10 9 11 16 13 9 12 13 13 14 12 10 9 10 11 9 10 10 11 12 11 11 9 6 6 8 11 11 8 11 16 18 17 18 18 23 26 24 29 26 19 26 23 17 20 19 15 17 28 34 33 32 31 34 35 35 37 38 39 38 38
15 16 16 15 14 13 13 13 14 16 19 21 19 18 20 21 20 20 21 20 20 20 20 20 18 16 12 12 21 23 21 19 17 16 16 16 15 14 12 10 12 11 10 10 10 11 12 12 10 8 7 7 7 8 8 10 15 16 14 12 15 15 18 21 21 26 20 14 21 17 13 14 11 15 26 34 37 35 34 32 32 33 33 34 36 37 36 37
16 16 16 15 15 15 15 15 16 18 20 21 21 22 23 23 22 22 21 20 19 19 19 19 17 14 10 15 26 27 22 21 22 22 21 20 18 17 17 15 15 14 13 11 11 10 10 11 10 11 12 11 8 8 11 17 17 14 12 9 12 11 11 15 16 15 11 9 10 4 7 10 7 14 25 28 30 29 29 31 32 32 32 32 33 34 35 36
17 17 16 16 16 17 16 16 17 18 19 21 24 26 25 24 23 22 20 18 18 18 18 17 13 9 10 21 28 26 22 21 23 25 23 21 20 19 19 17 17 18 16 14 14 14 11 11 10 10 12 13 13 13 13 13 11 10 10 8 7 7 7 8 8 7 4 4 4 3 6 11 7 13 21 23 25 23 21 23 27 29 30 30 31 33 35 35
18 19 19 19 18 18 17 17 18 20 21 23 25 25 25 24 24 24 21 19 17 15 13 11 8 6 12 25 29 23 20 21 24 25 23 22 19 17 17 16 17 18 17 15 15 15 13 11 9 8 10 13 13 11 7 6 7 7 7 6 5 6 7 5 5 8 6 2 7 7 6 11 11 13 19 22 23 23 21 21 24 25 28 29 30 32 33 34
16 18 19 20 20 19 18 18 20 21 20 22 23 23 25 25 24 23 21 18 15 11 8 6 5 5 9 17 19 15 15 17 17 16 18 21 19 14 11 11 13 14 14 14 14 12 11 10 9 9 9 8 6 5 5 5 5 5 6 6 5 5 7 5 5 7 4 0 7 9 7 11 13 13 19 22 23 25 23 23 27 29 30 31 30 30 31 32
12 15 17 19 19 20 20 21 21 20 20 21 23 24 27 28 25 20 17 14 10 6 5 2 1 4 11 14 13 12 13 14 13 10 12 17 18 14 9 10 10 8 7 8 9 8 8 8 6 6 7 5 4 4 5 5 4 4 4 4 6 7 7 6 8 5 1 3 7 10 10 14 17 17 23 27 26 24 21 22 27 28 30 31 31 30 31 31
12 12 15 17 18 19 21 22 21 21 22 24 26 27 28 26 19 14 12 8 3 2 3 5 3 2 12 16 11 10 12 12 11 11 10 13 17 17 13 11 8 6 6 4 6 9 8 7 6 4 4 5 4 4 5 6 5 5 4 4 6 7 7 9 9 6 5 8 10 10 11 16 20 19 22 29 27 21 20 24 26 27 28 30 30 30 31 32
14 13 12 14 16 17 19 21 22 22 23 24 25 25 23 17 12 11 9 5 8 6 2 10 14 5 4 5 5 6 9 8 7 9 12 14 16 17 15 10 9 10 8 4 6 12 10 5 5 5 5 6 7 8 10 9 8 9 8 6 7 7 8 10 10 10 10 10 10 9 12 17 21 20 20 27 28 19 20 23 24 25 26 27 28 28 29 31
16 14 12 12 12 13 15 17 19 21 21 23 23 19 14 9 7 7 7 13 19 17 9 11 21 18 9 3 5 7 6 7 7 9 13 14 15 17 15 11 10 10 7 4 5 11 11 4 6 8 7 9 10 12 13 12 12 11 8 6 8 8 9 9 11 11 5 5 8 9 13 18 21 21 19 23 24 16 15 15 15 19 23 24 26 26 26 28
18 16 14 13 11 11 11 12 14 16 18 19 17 10 4 4 4 2 3 13 22 26 23 19 21 25 21 11 10 10 7 8 9 12 13 14 17 15 14 14 9 6 8 7 4 6 10 7 8 10 10 11 11 11 10 9 9 8 6 6 7 7 9 10 12 9 2 1 8 10 15 20 20 20 19 20 19 14 12 10 9 14 18 20 22 23 24 26
20 18 16 14 12 10 9 9 10 11 13 14 10 8 6 5 8 6 7 11 19 26 28 26 26 30 31 24 21 16 10 9 10 15 15 17 21 14 14 15 8 5 8 9 5 3 6 10 11 11 10 10 11 11 8 6 6 6 4 5 7 7 8 9 9 6 2 1 8 12 14 19 21 19 17 17 13 7 5 4 6 10 11 11 12 13 14 16
25 21 18 17 14 11 9 8 9 10 11 10 8 8 8 9 11 10 9 9 18 26 27 30 32 35 36 31 27 23 17 15 13 18 21 21 22 18 14 12 8 7 8 10 9 5 6 8 9 12 13 11 11 10 6 5 5 5 5 6 7 7 6 6 6 7 8 6 9 13 12 15 18 14 11 12 8 1 2 1 5 7 8 8 9 10 10 11
28 25 21 19 16 13 10 7 9 12 11 8 8 8 7 9 10 9 8 8 11 17 24 31 32 35 37 29 26 27 25 21 15 18 26 26 23 18 13 11 9 8 9 11 12 11 11 6 2 4 9 11 11 8 6 5 5 6 8 8 7 8 8 8 7 8 9 7 5 9 11 9 7 6 9 10 3 4 3 3 5 6 4 3 5 8 8 8
28 28 24 20 19 15 11 11 12 12 9 7 7 5 4 5 5 4 4 7 7 6 11 20 23 26 30 24 22 23 20 21 21 20 26 30 26 14 9 12 10 7 10 12 11 12 13 11 7 5 5 8 8 7 6 5 4 6 7 8 9 10 9 8 8 8 7 4 1 8 8 7 4 9 10 9 4 2 2 3 5 7 6 5 8 9 8 6
26 30 27 23 21 17 15 16 15 11 9 7 4 2 3 1 2 3 3 4 6 2 4 9 12 12 14 17 21 17 6 11 21 23 23 27 28 16 7 9 8 7 8 8 8 7 8 10 10 9 8 7 7 7 7 7 4 6 3 5 7 7 6 6 6 5 3 5 4 4 2 6 9 12 9 7 8 2 4 3 3 1 3 5 7 6 2 4
22 27 30 28 24 21 22 19 14 12 9 5 2 3 3 5 4 1 2 4 6 3 6 6 7 5 6 13 21 15 1 2 10 18 22 23 24 18 9 7 6 6 3 2 5 3 5 9 8 8 9 8 8 7 7 8 6 4 0 1 3 4 5 5 5 3 3 6 8 4 6 4 8 11 9 10 9 2 2 3 5 7 11 14 15 13 9 9
19 21 28 33 29 26 27 22 15 12 8 5 6 6 7 8 6 3 2 3 3 5 6 4 3 4 6 11 21 13 2 5 7 10 20 23 21 14 9 8 6 6 5 5 6 1 2 8 9 9 8 7 7 7 6 8 6 2 2 1 1 2 4 4 4 4 4 5 6 4 5 2 6 8 11 10 4 4 4 6 7 8 12 14 14 14 11 9
18 16 21 31 33 29 29 26 19 11 8 8 8 9 13 13 8 4 2 2 1 4 4 5 4 4 7 10 16 10 2 2 1 6 16 20 19 10 4 7 6 5 7 9 10 3 1 2 4 7 7 6 8 6 6 8 6 2 1 1 1 3 4 4 4 4 4 4 7 5 6 2 5 7 9 4 4 6 6 6 7 8 12 14 13 13 12 9
18 16 16 23 32 33 31 31 24 14 12 12 11 15 18 14 8 4 2 3 2 3 4 4 4 6 9 7 7 8 3 1 3 8 10 11 14 9 2 3 5 5 5 8 11 9 5 0 1 3 5 3 3 2 1 3 3 2 1 2 3 5 5 4 4 2 2 4 7 7 9 5 3 6 6 1 4 6 4 5 7 8 10 12 14 17 17 15
18 17 15 17 29 37 34 34 30 21 17 14 15 22 19 8 3 3 5 2 2 2 4 4 4 7 9 5 3 5 3 1 5 7 5 5 8 7 3 3 2 2 4 7 8 9 10 7 2 4 7 2 3 2 2 3 3 3 0 1 3 4 2 2 2 2 1 4 4 3 7 6 4 6 5 5 9 6 4 6 5 5 6 8 14 18 19 20
18 18 17 16 25 37 39 36 34 27 21 18 22 24 13 2 1 5 5 0 1 2 2 4 5 6 7 4 2 6 4 3 7 6 5 5 6 7 6 5 4 2 4 6 6 5 8 12 8 6 10 10 4 2 1 2 2 3 2 1 1 2 1 1 3 2 4 4 2 2 5 4 6 8 10 13 10 2 7 6 5 3 3 6 11 15 18 21
18 18 20 18 20 34 43 38 34 31 24 22 26 19 5 2 5 8 7 3 2 3 3 4 6 6 7 4 2 6 5 3 6 5 4 5 5 7 9 9 7 4 2 3 5 5 4 8 11 6 5 12 10 6 3 2 4 6 4 4 4 2 2 3 4 3 4 3 2 4 4 3 5 6 10 9 1 5 8 9 8 4 2 5 8 11 16 20
19 18 21 22 20 28 39 39 36 33 28 29 24 10 2 5 5 4 7 7 3 3 3 5 8 7 7 5 2 6 5 3 7 6 4 5 5 6 8 10 12 7 2 1 3 4 3 4 8 6 2 10 14 10 7 3 5 7 6 4 4 3 3 3 2 3 3 2 2 5 3 3 3 3 6 1 6 7 9 12 10 5 3 4 7 10 14 18
22 21 21 24 23 24 33 41 39 34 34 33 17 4 5 9 5 2 6 8 5 3 3 4 8 6 5 4 2 4 5 3 7 7 5 6 5 5 6 8 12 9 4 3 3 4 6 4 2 2 1 8 10 8 7 3 3 5 5 4 5 4 3 2 1 1 1 2 2 4 3 5 4 7 13 4 5 7 8 9 6 5 5 1 6 10 13 16
22 24 22 24 27 25 28 38 39 38 40 29 8 6 9 9 6 4 4 7 7 5 5 4 4 4 4 4 3 5 5 2 5 5 3 6 6 7 8 7 11 13 9 6 2 2 5 3 0 1 2 3 3 1 4 3 1 2 4 4 3 1 2 1 2 1 3 1 3 4 3 5 3 8 12 4 6 7 7 6 5 6 6 3 3 8 11 13
20 23 25 26 28 26 26 34 38 42 42 24 7 9 9 8 11 8 2 4 9 10 8 5 5 6 6 4 5 9 6 3 4 4 2 4 5 8 11 8 10 16 16 11 3 2 3 2 2 1 1 1 2 4 2 2 1 2 3 2 1 3 3 1 1 2 1 4 3 4 6 5 2 4 4 6 8 7 8 7 7 7 7 6 3 6 10 11
18 21 27 32 30 24 23 31 40 45 35 14 8 11 9 11 13 10 6 4 8 10 8 7 7 7 8 7 5 9 9 4 6 6 3 4 4 6 9 8 9 15 18 14 5 3 1 1 3 1 1 2 2 2 1 2 2 3 2 2 1 1 1 2 2 1 3 4 4 4 7 6 4 3 4 5 7 9 9 7 7 7 7 7 6 5 8 9
17 17 25 33 31 25 23 30 44 43 21 7 10 11 8 12 14 14 16 11 5 7 8 8 8 5 8 9 5 7 10 8 8 6 4 4 4 6 9 9 8 11 16 16 8 3 1 1 2 2 1 1 2 1 3 3 2 2 3 3 1 1 2 3 3 3 4 3 4 3 4 4 4 5 5 4 3 9 9 7 7 5 3 3 1 5 7 8
15 11 19 26 22 20 24 34 41 28 9 8 13 10 7 11 13 18 24 17 7 7 8 8 9 7 6 7 5 6 8 8 9 7 5 6 6 5 7 9 6 4 10 14 9 2 0 3 3 1 3 0 1 4 7 7 6 4 1 2 3 2 1 1 2 3 3 2 3 3 3 4 4 2 1 5 4 8 10 8 6 2 1 1 4 6 7 9
14 9 15 22 17 17 27 33 26 12 6 9 11 11 11 9 6 11 22 23 14 7 5 6 9 8 6 5 5 5 6 6 8 7 5 7 8 5 4 7 6 4 6 8 7 4 2 3 4 2 1 3 4 4 5 5 7 7 6 7 6 5 3 1 4 4 2 2 3 3 4 5 3 2 3 4 3 6 8 5 3 2 3 4 5 6 10 13
15 9 12 17 15 22 32 22 10 7 7 10 15 17 13 6 3 7 16 22 17 10 6 6 7 8 7 7 7 6 6 6 7 8 6 9 12 8 4 6 10 10 7 4 5 4 3 0 3 3 3 4 4 2 3 3 4 4 4 5 6 5 5 4 5 4 3 3 1 2 5 4 3 3 4 4 2 4 6 5 2 5 7 7 7 11 16 16
15 16 18 16 15 27 30 12 7 9 7 12 20 20 13 7 7 9 11 14 14 11 9 6 6 9 9 7 7 7 6 5 8 10 9 9 11 10 8 13 16 12 6 2 2 2 3 1 3 4 3 1 2 1 1 1 2 2 3 4 5 7 7 6 5 2 2 4 3 1 7 4 2 3 3 2 1 1 2 3 5 8 9 10 13 18 20 17
16 20 24 21 20 28 23 6 9 12 8 12 15 15 16 13 11 11 10 11 11 8 9 8 8 10 9 5 4 6 8 7 8 11 11 8 6 7 13 20 19 10 4 4 3 4 4 2 2 2 4 3 2 2 2 2 0 3 4 6 8 9 7 6 3 0 3 6 8 6 8 4 3 5 4 4 4 4 4 7 9 8 8 12 17 20 19 17
13 14 18 21 26 32 24 13 13 11 11 16 15 15 17 14 14 18 14 11 12 9 8 11 12 12 10 7 5 5 9 10 8 9 9 6 3 3 10 19 18 9 6 9 8 6 4 3 4 5 7 9 6 3 3 3 2 3 4 8 11 12 11 7 3 4 7 6 9 10 8 2 3 5 5 6 5 4 5 8 7 7 11 16 19 19 18 18
8 6 9 15 24 32 30 25 18 10 11 17 14 15 18 13 13 20 18 12 14 14 11 10 13 12 9 9 8 8 11 11 7 4 4 5 4 1 4 13 13 9 11 15 14 7 2 1 7 9 10 11 7 3 2 4 4 4 6 11 13 14 15 9 6 8 6 3 7 12 8 5 6 5 5 5 3 5 8 8 7 9 15 20 21 19 17 20
6 3 5 8 12 18 19 20 17 9 10 15 10 11 20 18 11 14 17 15 15 18 13 9 12 13 11 13 12 10 12 12 8 6 5 6 3 2 0 6 7 8 12 15 15 10 2 6 13 14 15 15 11 10 8 3 3 5 7 12 14 13 14 13 12 11 5 3 9 8 8 11 11 7 10 9 6 9 11 9 9 12 17 21 23 21 18 22
8 6 10 10 6 6 8 13 16 13 14 15 9 8 18 21 17 14 15 14 16 18 12 10 15 17 16 17 14 11 12 12 11 11 10 9 6 2 1 2 5 9 9 8 11 10 3 9 14 12 16 19 16 16 15 12 10 9 6 8 11 13 15 16 18 15 9 9 11 4 7 13 10 8 12 12 10 10 10 12 14 18 21 21 20 21 21 23
11 9 13 14 7 3 7 11 13 15 18 17 12 11 16 19 20 18 13 10 13 15 14 13 16 19 19 18 14 13 13 12 12 13 12 13 11 7 5 4 5 7 7 5 5 5 4 9 12 10 12 18 18 17 15 13 13 14 13 13 12 13 16 17 18 17 15 18 17 10 13 16 9 6 9 10 12 13 13 17 19 19 23 22 19 19 20 21
14 10 10 12 8 7 11 12 9 11 14 15 13 13 15 17 18 15 13 14 14 13 16 19 18 16 18 19 18 18 16 14 15 14 14 14 12 10 9 7 5 5 6 5 3 3 5 7 8 8 9 15 18 15 12 11 11 13 15 17 17 18 18 18 16 13 13 18 18 14 18 18 8 6 10 10 14 17 16 17 19 19 22 22 18 15 16 18
20 19 15 10 5 6 9 7 7 9 10 10 10 11 16 21 20 14 13 18 19 13 13 19 20 16 16 20 23 22 18 16 15 15 16 16 15 14 11 7 8 8 7 6 3 4 6 3 3 6 7 13 14 12 12 11 9 12 19 24 23 21 18 16 13 11 13 15 14 13 17 15 6 6 10 8 9 14 14 13 16 19 18 16 14 11 13 16
20 21 20 13 5 6 8 5 6 9 6 6 7 7 10 14 15 14 14 17 21 22 19 18 17 14 14 19 24 24 22 22 21 22 22 20 19 19 13 11 13 12 9 7 5 4 6 5 3 5 7 11 10 9 10 8 6 12 21 25 24 22 19 16 15 16 17 15 12 13 16 13 5 6 9 7 7 12 10 5 7 10 9 7 9 14 17 18
Wind_Direction
265 261 256 253 256 254 250 252 253 252 253 255 259 262 264 267 268 270 272 276 279 281 283 284 283 283 283 288 293 295 296 296 296 292 286 289 290 278 274 276 282 289 290 292 306 307 275 274 277 259 251 263 248 246 253 231 215 230 246 240 252 251 254 267 267 275 290 295 300 300 301 301 300 294 288 294 291 286 287 281 275 266 260 263 269 272 272 267
262 264 262 253 252 256 252 252 254 255 256 257 259 262 265 267 269 270 272 274 275 277 279 281 283 283 284 288 294 297 297 300 300 291 288 293 288 275 267 255 295 313 292 296 307 268 270 282 289 280 264 262 251 240 241 230 206 208 243 249 253 259 265 272 276 281 287 290 290 290 292 290 289 290 287 284 282 283 284 280 280 274 262 257 263 265 263 261
261 266 267 256 249 255 257 255 255 256 257 259 261 263 266 268 270 272 274 275 275 276 277 279 282 283 285 288 294 299 302 308 304 294 295 299 287 264 228 214 323 334 299 283 266 250 268 279 281 277 266 260 255 251 245 231 204 210 228 249 255 261 270 273 280 287 294 297 293 286 288 286 279 280 283 281 277 274 272 274 277 275 271 268 268 266 264 258
265 268 267 262 253 251 257 260 259 258 259 261 263 264 266 269 272 275 276 277 277 277 277 278 281 283 287 291 295 300 312 316 301 287 295 299 270 200 191 205 307 328 304 276 277 269 270 272 271 263 257 259 255 255 252 232 212 222 230 248 260 271 283 282 287 294 297 296 289 285 287 283 276 275 274 273 272 263 263 268 267 270 273 272 267 263 264 260
266 268 265 264 260 253 254 261 262 261 261 260 262 264 267 271 274 277 278 279 280 280 280 280 282 284 287 291 293 298 319 324 287 230 281 297 199 188 199 224 290 312 299 275 290 285 269 270 265 253 246 257 257 250 247 235 231 242 244 245 255 273 286 281 282 281 282 283 278 278 284 283 281 277 267 264 264 258 259 262 263 267 271 273 274 271 269 267
266 266 265 266 265 259 253 256 261 261 262 262 263 265 268 272 275 278 279 281 282 281 283 282 284 285 287 292 289 287 273 264 230 233 292 295 238 234 242 260 288 300 284 260 279 267 265 270 253 248 245 246 252 251 256 246 240 248 253 252 255 262 270 280 284 283 284 287 285 282 279 276 277 275 269 263 262 264 262 260 262 264 267 274 278 278 276 275
267 268 269 268 268 262 255 254 256 260 266 265 266 268 270 272 274 277 279 281 281 281 283 283 286 287 289 290 285 276 237 244 265 279 282 283 272 269 270 278 289 285 256 248 255 251 262 266 251 255 258 253 255 254 264 264 257 260 274 281 276 268 266 275 282 284 284 284 283 280 277 273 268 270 272 263 260 262 262 261 261 261 262 265 268 269 269 268
268 271 270 270 270 262 255 258 261 266 271 269 270 271 272 275 275 276 277 279 280 281 282 283 286 288 292 291 290 284 252 259 275 274 272 274 273 275 276 281 281 254 239 242 242 250 262 262 261 264 262 260 264 270 282 285 270 263 268 272 278 278 274 274 278 280 279 278 279 276 270 265 263 268 269 263 263 264 263 263 262 261 260 258 258 259 259 259
271 276 275 276 274 262 259 264 268 273 276 275 276 275 276 277 277 277 276 277 279 280 281 282 284 287 294 292 290 282 266 273 279 264 265 270 271 274 274 273 262 238 234 242 243 246 249 252 262 271 282 283 282 288 290 288 268 266 279 280 282 289 292 289 284 281 278 275 275 274 269 266 265 267 264 260 263 265 263 262 261 260 258 257 257 256 255 255
268 272 277 280 278 272 268 268 271 278 281 282 281 281 282 280 280 280 277 279 278 279 279 280 283 287 290 284 274 266 271 277 262 255 262 262 262 266 267 259 248 240 231 242 244 238 242 249 264 285 308 294 283 285 279 277 279 278 284 286 283 289 291 286 280 275 274 274 270 266 264 264 261 259 263 263 264 264 260 258 258 258 256 256 257 257 256 255
263 265 269 273 277 277 270 267 270 276 282 285 285 284 285 283 283 282 279 280 278 279 280 280 284 284 282 264 232 241 265 267 250 256 259 255 259 265 266 247 237 239 232 243 246 240 244 249 264 282 294 272 272 279 271 284 305 290 287 287 282 285 281 275 273 269 267 267 262 258 261 260 253 245 253 264 266 265 261 257 257 256 254 254 254 254 253 254
259 264 268 270 273 272 267 267 267 271 279 283 285 287 289 287 286 284 281 280 279 281 280 281 284 282 283 256 243 252 264 262 257 258 256 259 262 261 259 239 228 230 230 246 252 251 249 246 252 248 251 273 291 284 281 312 317 298 290 290 281 279 273 267 264 260 256 255 255 260 275 260 239 240 249 257 262 262 258 256 257 257 256 255 255 254 252 252
254 259 265 268 268 265 264 266 267 274 279 283 287 290 292 291 289 286 280 277 278 280 281 284 286 283 278 258 260 270 273 262 258 257 256 257 257 256 256 242 229 224 225 235 241 247 240 232 239 241 255 274 279 278 295 305 303 288 278 273 278 282 269 263 263 254 242 249 255 264 289 260 223 243 255 260 264 264 255 248 250 252 253 253 254 254 253 253
256 255 257 260 261 262 263 266 268 271 276 282 288 291 292 293 293 288 280 278 278 279 284 286 286 285 262 259 272 281 278 265 254 253 255 253 250 251 253 244 235 233 234 238 238 238 231 225 238 251 259 260 263 282 297 294 282 274 269 256 263 273 267 270 284 281 242 223 211 167 261 268 257 255 261 263 266 274 270 255 249 247 247 248 250 251 251 250
261 259 257 257 258 260 262 263 264 268 274 282 287 290 291 292 294 292 285 281 283 284 285 283 276 268 264 272 282 284 272 261 254 255 254 248 243 243 249 244 236 238 241 245 244 242 240 239 239 246 260 253 253 274 287 276 265 255 258 263 247 253 281 298 295 289 284 216 186 193 255 275 272 262 264 267 269 274 274 270 266 260 255 250 248 248 248 249
267 263 260 259 257 256 258 260 264 270 278 283 287 291 290 293 298 297 290 283 285 280 265 272 271 251 270 283 287 282 269 260 260 260 246 239 232 228 240 235 228 238 244 245 249 248 239 234 235 241 257 255 233 246 271 272 269 242 232 259 263 277 304 314 310 308 325 149 202 217 263 280 277 274 273 274 272 269 266 264 263 261 260 258 255 252 251 252
281 271 265 263 260 257 255 257 264 270 275 279 283 288 292 298 302 296 287 281 276 256 229 239 325 258 258 270 273 270 273 270 266 254 235 230 220 209 206 204 211 232 239 238 241 231 211 209 225 241 241 238 229 245 271 269 264 255 245 271 292 307 312 301 310 323 130 209 240 241 257 271 277 283 283 280 275 270 266 264 260 257 257 256 255 255 254 253
293 286 276 270 267 264 257 258 262 265 269 274 280 287 292 300 305 292 279 277 242 204 241 215 161 286 258 256 261 258 260 259 255 245 226 216 209 201 198 201 200 196 190 205 216 196 190 206 213 235 232 213 224 227 234 251 267 287 290 303 305 302 298 289 296 311 284 267 267 266 271 277 282 285 288 286 282 273 267 266 264 260 257 254 252 250 250 251
287 290 286 276 272 269 263 262 264 265 269 277 284 292 299 306 306 288 266 220 177 172 237 206 191 195 288 265 235 233 238 236 247 239 213 207 207 196 194 201 187 181 182 179 196 187 179 198 210 222 237 216 214 212 221 245 264 281 287 292 298 293 287 284 283 291 294 288 285 287 285 285 288 289 289 289 287 277 266 266 263 260 259 256 255 251 248 249
276 281 283 279 276 274 271 267 266 270 274 281 290 296 307 312 290 276 233 215 219 224 235 216 210 224 264 290 219 228 235 238 242 217 206 206 197 185 183 187 184 193 206 187 174 179 177 196 224 218 225 223 227 225 228 244 253 264 280 286 285 280 280 286 287 289 309 315 292 289 288 284 285 288 288 289 290 281 265 265 260 258 256 254 254 254 252 251
271 270 272 275 276 278 282 276 268 270 272 280 288 282 294 322 282 285 257 242 247 249 249 245 235 240 253 252 242 249 240 245 232 203 207 195 177 173 175 177 181 199 213 211 183 162 180 217 231 221 228 231 240 247 247 257 261 265 274 281 281 275 279 282 286 294 38 31 286 292 291 287 286 287 287 286 286 277 257 252 260 262 258 253 250 250 250 252
267 265 265 266 268 276 284 289 279 272 275 279 274 240 229 267 260 273 297 275 269 266 258 254 249 248 251 247 248 253 235 235 217 197 203 182 174 179 173 178 194 196 196 209 205 153 203 240 239 230 238 239 244 255 261 270 276 274 270 277 273 270 285 280 280 308 19 269 294 304 298 291 291 285 284 281 273 271 258 248 296 308 308 297 283 271 262 259
265 262 260 258 259 264 269 283 280 275 283 277 256 241 240 257 264 278 288 277 277 270 254 251 249 244 246 243 240 237 228 231 219 204 204 184 181 193 180 177 203 203 193 200 201 199 222 233 231 230 234 239 245 243 240 257 261 251 249 262 267 272 288 282 294 329 327 298 292 305 302 290 288 283 287 285 262 153 89 254 295 320 339 327 306 293 278 269
265 260 254 254 253 251 255 266 261 267 278 269 261 264 258 267 278 291 280 264 274 265 253 253 249 241 242 244 237 227 225 229 223 212 208 191 183 194 195 189 200 210 211 206 207 220 232 225 225 235 221 227 240 235 224 238 251 240 232 237 255 269 268 270 300 323 313 290 287 332 322 285 286 316 315 305 305 99 128 228 263 267 272 267 258 263 259 261
261 261 253 247 246 245 243 242 245 257 264 261 275 277 262 282 305 334 299 274 261 246 252 250 241 239 240 238 230 220 220 228 227 219 206 195 188 185 197 198 199 217 216 216 221 231 239 241 255 261 220 220 228 231 217 205 245 254 229 228 246 264 272 287 316 326 318 285 356 25 342 281 318 331 308 300 320 80 154 243 249 237 227 228 252 252 241 270
253 258 254 243 239 235 228 234 241 244 250 259 272 238 218 215 52 23 354 296 268 188 153 201 208 226 226 213 203 196 219 241 230 223 207 200 198 191 193 196 203 228 216 218 232 243 238 230 237 229 215 216 218 232 211 181 233 269 230 224 251 277 297 309 315 318 311 278 307 30 287 272 308 308 296 299 300 215 177 265 281 304 15 360 330 306 268 332
245 251 254 246 234 223 220 229 230 223 230 241 169 144 180 154 123 54 28 294 270 150 123 165 183 182 178 185 180 172 249 197 192 208 199 194 199 201 215 203 196 220 210 216 231 232 208 209 217 210 211 218 219 234 208 184 222 257 20 213 253 292 292 296 306 288 269 285 291 244 202 252 296 290 289 290 290 227 169 329 6 19 20 16 8 8 13 11
245 243 248 246 239 229 225 226 224 217 210 175 137 129 132 125 121 114 77 299 274 104 109 152 161 157 141 164 176 170 92 126 140 185 186 187 194 201 227 225 215 207 183 206 226 211 161 203 207 197 206 222 223 233 208 198 221 224 47 61 196 299 284 287 289 265 279 304 293 235 164 215 268 276 291 285 305 9 352 10 22 11 13 13 9 11 12 13
252 240 238 243 244 236 227 226 227 223 198 164 139 136 131 119 101 79 79 260 263 78 108 151 137 135 126 151 189 197 91 108 126 159 171 188 196 196 237 235 253 247 203 215 229 249 34 179 198 198 211 225 223 234 221 211 212 162 60 16 245 262 252 254 254 263 297 284 269 242 161 196 273 275 286 297 43 355 333 18 29 11 11 14 21 26 25 23
257 246 236 239 236 228 223 223 223 219 196 172 145 137 131 121 101 82 187 244 320 48 112 139 126 141 145 145 199 218 217 58 79 139 167 200 203 208 275 222 256 280 241 234 237 247 259 197 88 216 236 243 193 204 259 202 175 106 32 314 291 257 224 220 229 247 298 263 262 233 180 172 299 280 265 45 14 321 337 36 29 19 13 24 44 47 44 41
257 249 241 236 230 225 220 216 217 213 197 175 149 142 134 113 86 151 203 243 1 95 125 133 125 137 159 168 174 191 215 163 120 141 174 205 202 215 253 204 202 283 271 254 245 246 243 233 203 196 214 207 98 113 38 52 91 89 140 303 329 286 233 178 184 164 223 253 272 215 168 170 222 264 278 316 315 320 71 72 47 30 3 27 56 57 53 49
255 249 241 236 234 230 226 223 222 210 193 172 155 150 143 105 200 208 216 22 66 177 123 137 155 151 170 214 212 165 192 192 148 156 183 187 200 208 218 212 168 164 246 238 230 231 232 229 216 189 196 194 167 146 77 39 92 129 164 155 32 314 295 207 194 190 213 236 256 143 145 195 239 256 269 284 299 14 107 111 98 75 351 24 56 57 53 49
248 247 242 235 233 231 230 232 224 204 186 167 159 155 147 198 211 218 211 199 176 154 99 131 154 153 163 199 226 165 190 211 147 171 207 191 215 214 214 229 218 218 245 207 212 218 239 228 203 182 191 196 192 185 181 174 172 173 167 161 163 186 242 234 220 221 224 234 226 188 181 246 261 249 251 264 278 122 130 133 128 117 40 28 41 49 49 47
239 241 241 235 233 230 229 227 217 202 182 162 159 155 165 215 231 223 202 215 218 132 112 135 146 155 171 191 205 149 176 213 152 170 218 196 222 226 212 227 233 247 298 265 230 204 238 258 189 173 161 185 195 207 204 167 169 190 183 177 199 205 213 221 212 227 253 299 224 198 203 221 208 253 275 290 114 135 133 136 148 148 116 41 26 40 45 44
240 237 238 237 234 231 229 224 214 202 179 161 158 170 189 215 238 209 205 213 212 164 152 151 143 153 186 199 224 165 169 194 156 162 212 210 221 228 211 216 220 227 238 231 235 199 226 274 200 190 133 170 188 213 213 169 162 195 171 177 231 233 209 238 300 209 147 347 261 201 233 233 217 288 291 290 113 124 126 140 174 179 158 87 12 28 38 41
250 240 239 239 233 231 230 222 212 198 179 162 164 215 201 223 219 181 200 190 188 180 151 158 158 161 190 185 200 197 176 152 153 156 213 223 239 240 225 215 202 205 211 208 212 209 222 257 66 15 16 143 153 215 217 201 173 188 164 181 232 211 140 225 302 27 108 250 250 192 245 273 274 286 274 230 124 127 146 168 197 205 198 194 3 12 25 34
261 249 246 240 233 234 231 220 207 191 179 169 192 214 206 231 215 204 221 159 181 182 160 186 202 178 190 191 184 188 171 133 163 166 180 203 239 236 223 227 203 198 207 212 235 268 219 239 244 210 43 85 45 29 322 313 73 146 184 207 314 22 53 120 282 355 176 251 251 188 236 259 229 275 252 150 135 158 179 185 197 217 219 205 239 344 8 25
268 262 254 243 233 233 234 220 200 184 177 177 218 218 215 227 218 209 214 194 184 181 177 209 206 170 183 197 183 173 167 165 172 168 176 196 227 210 199 215 212 204 207 208 233 291 231 228 259 257 82 115 81 54 339 308 110 129 236 255 100 71 251 161 177 227 212 245 260 219 240 237 184 225 241 174 156 170 183 190 201 218 213 198 224 291 340 13
271 266 257 248 233 229 234 213 192 182 176 188 214 217 221 229 229 215 209 215 209 188 194 211 209 195 198 199 176 159 171 178 168 166 188 196 219 210 184 190 211 211 200 195 213 278 305 233 255 301 344 118 84 120 187 199 161 81 329 301 127 156 206 178 193 217 197 225 258 240 258 252 206 207 228 242 181 165 176 192 206 221 179 148 244 301 331 8
266 258 257 251 234 229 227 201 186 182 187 205 208 217 225 229 236 221 210 211 212 206 210 211 208 211 210 202 187 168 177 179 170 180 198 194 227 241 189 183 202 211 185 187 207 262 358 244 231 343 325 236 150 202 192 185 190 188 218 240 212 194 168 194 251 231 191 206 243 247 259 251 235 179 183 286 261 175 169 179 192 209 97 51 346 351 10 17
249 246 258 251 233 216 205 193 187 192 208 208 213 225 229 234 240 216 210 214 221 230 233 225 218 215 204 203 196 166 170 183 181 187 198 204 223 235 188 176 172 147 147 177 212 213 177 246 230 189 247 228 220 213 186 176 183 188 195 199 199 191 164 217 257 227 192 204 210 233 250 238 252 349 16 324 277 159 146 145 172 247 273 299 333 16 20 11
236 241 257 253 240 204 191 186 194 205 203 213 217 218 222 237 237 203 204 211 220 235 243 239 231 224 208 206 209 175 164 185 189 191 206 211 213 215 191 152 150 145 136 158 222 207 144 330 265 238 214 219 244 214 145 150 150 167 214 201 193 205 186 195 232 214 203 236 202 263 266 241 238 302 339 354 17 106 114 121 179 256 272 297 332 358 360 359
230 243 249 257 248 206 191 186 212 208 219 227 224 225 227 233 233 218 205 206 210 216 224 231 231 231 228 215 208 190 178 189 193 200 215 222 220 214 176 145 143 144 141 153 243 178 135 155 251 267 288 307 305 297 136 103 119 171 243 202 194 216 205 211 231 183 196 222 163 220 254 228 177 250 264 287 291 120 137 195 235 260 280 309 334 346 348 349
244 250 249 255 246 212 194 186 206 208 225 226 230 239 236 237 237 226 214 206 203 201 210 217 220 227 230 214 191 191 195 204 206 208 215 223 221 194 168 157 153 153 165 176 177 173 172 172 175 231 269 264 285 282 270 319 172 206 220 199 208 219 217 232 247 44 252 211 169 205 243 205 177 240 244 234 236 223 223 237 239 249 288 319 332 337 338 341
254 250 246 248 235 214 208 215 215 218 223 222 233 237 232 239 238 232 232 217 207 204 205 213 217 221 218 201 190 197 205 214 216 209 211 218 217 163 168 172 169 171 169 150 143 160 172 167 177 194 222 230 229 216 212 213 203 228 212 199 210 214 212 222 215 215 234 191 174 217 241 195 193 240 249 247 255 264 257 255 254 273 309 320 324 326 328 333
250 238 237 233 221 214 219 226 231 238 220 219 231 229 227 235 234 232 236 227 214 212 215 218 214 219 219 204 206 212 216 223 224 206 197 198 205 4 186 192 191 189 174 153 141 137 108 212 214 215 225 232 239 251 201 135 149 212 209 202 210 211 207 211 217 221 221 195 219 229 233 243 240 238 251 254 281 301 287 287 298 310 316 314 311 314 321 325
249 222 221 221 216 219 226 231 236 249 232 224 224 218 224 229 230 230 226 221 215 212 219 228 211 210 209 205 214 220 218 225 225 220 224 205 198 16 170 218 222 196 176 163 153 141 116 240 225 225 236 242 253 268 276 285 238 238 211 205 214 214 206 209 223 224 198 231 250 220 200 236 242 235 251 265 283 284 281 292 303 306 306 304 306 312 319 319
254 252 245 247 238 214 223 227 229 236 242 240 234 223 228 224 219 221 220 222 222 212 216 227 215 215 213 206 213 219 214 222 223 218 225 221 211 194 161 243 234 195 171 166 166 149 157 239 229 224 239 247 251 256 264 277 280 277 260 229 220 214 210 212 224 226 206 227 250 215 195 230 229 220 240 254 268 272 279 289 293 297 299 300 305 311 314 313
259 264 262 264 263 252 267 260 243 238 240 241 239 236 238 231 223 219 214 221 227 215 217 226 217 216 218 213 215 217 210 212 216 213 218 222 215 201 202 223 215 187 168 168 190 162 167 234 232 217 236 251 249 245 249 257 267 273 269 259 245 229 222 219 223 224 219 234 248 253 252 247 228 219 237 245 261 272 283 286 286 290 294 298 303 305 307 308
257 264 281 283 276 277 282 273 260 254 244 238 237 236 240 242 235 227 217 220 228 216 214 226 225 215 216 217 220 223 217 213 217 212 209 215 216 209 211 206 165 162 175 177 196 203 199 226 224 200 229 252 245 239 235 230 245 263 264 258 251 244 238 231 227 223 223 237 245 251 261 258 233 233 253 253 265 277 283 284 285 287 288 292 294 297 304 309
261 267 280 290 286 272 275 266 259 267 256 242 242 242 242 242 239 239 234 229 233 226 212 222 228 221 219 222 224 227 225 222 226 223 213 210 212 212 210 183 154 160 184 183 171 201 210 220 193 182 224 246 235 229 232 229 239 259 259 252 243 238 240 239 236 229 223 235 243 242 253 256 216 209 244 240 246 264 269 271 279 284 281 278 285 308 332 336
266 269 268 266 269 267 269 273 261 260 260 257 258 255 257 259 255 251 245 232 229 228 222 221 224 224 224 225 226 227 227 229 233 234 234 232 226 223 214 188 176 172 173 181 176 181 194 208 214 191 220 247 232 209 220 228 227 243 249 244 237 235 237 237 241 238 226 227 235 235 245 254 221 208 240 233 225 248 263 293 323 328 333 338 354 13 19 19
Height
1499 1499 1499 1500 1500 1501 1501 1502 1502 1502 1503 1503 1503 1503 1503 1503 1503 1503 1503 1503 1504 1504 1504 1503 1502 1502 1501 1501 1501 1500 1499 1498 1498 1497 1495 1494 1495 1495 1496 1496 1496 1495 1495 1494 1494 1494 1494 1495 1494 1495 1495 1495 1495 1494 1493 1492 1493 1494 1495 1497 1495 1490 1485 1480 1476 1473 1470 1467 1466 1466 1466 1467 1466 1465 1464 1462 1461 1459 1458 1457 1456 1455 1454 1452 1453 1454 1454 1455
1497 1498 1498 1499 1499 1500 1500 1501 1501 1501 1502 1502 1502 1502 1502 1502 1502 1502 1502 1502 1502 1502 1502 1502 1502 1501 1501 1501 1500 1499 1497 1497 1495 1493 1492 1492 1493 1493 1494 1495 1495 1495 1494 1494 1493 1494 1494 1494 1494 1494 1493 1493 1492 1491 1491 1490 1490 1491 1493 1493 1489 1484 1480 1476 1473 1470 1468 1468 1466 1466 1466 1466 1466 1465 1464 1462 1460 1460 1457 1455 1455 1452 1449 1450 1451 1452 1452 1452
1496 1497 1497 1498 1498 1499 1499 1499 1500 1500 1500 1501 1501 1501 1501 1500 1500 1501 1501 1501 1500 1501 1501 1501 1501 1500 1500 1500 1499 1498 1497 1496 1493 1490 1489 1490 1490 1490 1492 1493 1494 1494 1494 1494 1493 1494 1493 1493 1493 1492 1492 1491 1490 1490 1489 1487 1487 1488 1490 1490 1485 1480 1476 1473 1472 1469 1467 1467 1465 1465 1465 1464 1464 1464 1463 1460 1458 1458 1456 1453 1453 1449 1447 1448 1449 1450 1449 1449
1495 1496 1496 1497 1497 1497 1498 1498 1499 1499 1499 1499 1499 1499 1499 1499 1499 1499 1499 1499 1499 1499 1499 1499 1499 1499 1499 1499 1499 1498 1497 1495 1491 1487 1487 1488 1488 1489 1490 1491 1492 1493 1493 1493 1493 1493 1492 1492 1492 1491 1491 1490 1488 1488 1487 1486 1486 1485 1485 1485 1480 1476 1474 1472 1471 1469 1468 1467 1465 1463 1463 1462 1461 1461 1460 1458 1456 1454 1453 1452 1451 1449 1447 1447 1447 1447 1447 1446
1494 1495 1495 1495 1496 1496 1497 1497 1497 1498 1498 1498 1498 1498 1498 1498 1498 1498 1498 1498 1498 1498 1498 1498 1497 1498 1498 1498 1498 1497 1498 1496 1489 1487 1488 1488 1488 1488 1489 1490 1490 1491 1492 1492 1492 1492 1492 1491 1491 1490 1490 1488 1487 1486 1484 1483 1484 1483 1480 1478 1476 1475 1473 1471 1470 1469 1467 1466 1464 1461 1461 1460 1459 1458 1456 1456 1453 1448 1449 1449 1448 1448 1446 1445 1444 1444 1443 1442
1493 1493 1494 1494 1495 1495 1495 1496 1496 1496 1496 1496 1497 1497 1497 1497 1497 1497 1497 1497 1497 1497 1496 1496 1496 1497 1496 1497 1497 1496 1498 1495 1488 1488 1488 1488 1489 1489 1489 1489 1489 1490 1491 1491 1491 1492 1491 1491 1491 1490 1488 1486 1485 1483 1481 1480 1481 1480 1475 1472 1472 1473 1471 1469 1468 1467 1465 1464 1461 1460 1458 1459 1458 1455 1453 1452 1447 1443 1445 1445 1445 1444 1444 1443 1442 1441 1440 1439
1492 1492 1493 1493 1494 1494 1494 1495 1495 1495 1495 1495 1495 1495 1496 1496 1496 1496 1496 1496 1496 1495 1495 1495 1495 1495 1495 1496 1495 1495 1495 1489 1487 1489 1488 1488 1489 1488 1489 1488 1488 1489 1489 1490 1491 1491 1491 1491 1490 1488 1486 1485 1483 1480 1479 1478 1478 1477 1473 1471 1470 1470 1468 1468 1467 1465 1464 1462 1459 1458 1457 1456 1455 1453 1451 1447 1441 1441 1442 1441 1441 1441 1441 1441 1440 1438 1438 1437
1491 1491 1491 1492 1492 1493 1493 1493 1493 1493 1494 1494 1494 1494 1494 1494 1494 1494 1494 1494 1494 1494 1494 1494 1494 1494 1494 1494 1493 1493 1490 1484 1486 1488 1487 1488 1487 1487 1488 1487 1487 1488 1488 1489 1490 1490 1490 1490 1489 1488 1486 1483 1481 1479 1478 1477 1476 1475 1472 1470 1469 1467 1466 1466 1465 1463 1462 1459 1458 1456 1453 1452 1451 1451 1447 1439 1438 1439 1439 1438 1437 1437 1437 1437 1435 1435 1434 1433
1490 1490 1490 1491 1491 1492 1492 1492 1492 1492 1492 1492 1493 1493 1493 1493 1493 1493 1493 1492 1492 1493 1492 1493 1492 1492 1492 1492 1492 1491 1485 1482 1485 1486 1486 1486 1486 1486 1486 1486 1486 1487 1487 1488 1489 1489 1489 1489 1488 1487 1485 1482 1481 1479 1478 1478 1476 1473 1470 1469 1467 1466 1465 1465 1463 1460 1459 1457 1456 1452 1449 1448 1448 1449 1439 1432 1435 1435 1434 1435 1432 1433 1433 1431 1431 1430 1430 1429
1489 1489 1490 1490 1490 1491 1491 1491 1491 1491 1491 1491 1491 1491 1491 1491 1491 1491 1491 1491 1491 1490 1491 1491 1491 1491 1491 1490 1492 1489 1481 1481 1484 1483 1485 1485 1484 1485 1485 1485 1485 1486 1487 1487 1488 1488 1488 1488 1487 1486 1485 1483 1481 1479 1478 1478 1475 1471 1470 1468 1466 1465 1464 1463 1460 1457 1455 1454 1452 1449 1446 1443 1444 1446 1434 1425 1431 1430 1429 1429 1427 1428 1427 1426 1426 1426 1426 1424
1488 1489 1489 1489 1490 1490 1490 1491 1491 1491 1490 1490 1490 1490 1490 1490 1490 1489 1489 1489 1489 1489 1489 1489 1489 1489 1489 1489 1489 1484 1479 1481 1482 1482 1483 1483 1483 1483 1484 1484 1484 1485 1486 1486 1486 1487 1487 1487 1486 1486 1485 1483 1481 1479 1477 1475 1473 1471 1470 1466 1464 1465 1462 1459 1456 1452 1451 1449 1447 1444 1440 1437 1439 1439 1428 1423 1426 1425 1424 1424 1422 1423 1422 1421 1421 1420 1420 1419
1487 1488 1488 1488 1489 1489 1490 1490 1490 1490 1489 1489 1489 1488 1488 1488 1488 1488 1487 1487 1487 1487 1487 1487 1487 1487 1487 1486 1481 1477 1478 1480 1480 1480 1481 1481 1481 1481 1482 1483 1483 1484 1484 1485 1485 1485 1485 1485 1486 1485 1484 1482 1481 1479 1476 1474 1473 1471 1470 1467 1463 1461 1457 1452 1449 1445 1445 1444 1441 1441 1438 1432 1433 1430 1422 1420 1420 1420 1420 1418 1418 1418 1417 1417 1416 1415 1415 1414
1486 1487 1487 1488 1488 1488 1489 1489 1489 1489 1489 1488 1487 1487 1487 1486 1486 1486 1485 1485 1485 1485 1484 1485 1485 1485 1486 1480 1472 1474 1478 1478 1477 1477 1478 1479 1479 1479 1480 1481 1481 1482 1482 1483 1483 1483 1484 1484 1484 1484 1483 1482 1481 1479 1476 1472 1473 1470 1468 1467 1462 1459 1452 1443 1441 1438 1439 1439 1437 1443 1441 1429 1425 1423 1418 1418 1416 1414 1414 1413 1413 1412 1412 1412 1411 1410 1409 1409
1485 1485 1486 1486 1486 1487 1487 1487 1488 1488 1487 1487 1486 1486 1485 1485 1485 1484 1484 1484 1483 1483 1483 1484 1483 1484 1483 1472 1467 1473 1474 1474 1474 1473 1475 1476 1477 1477 1477 1478 1479 1480 1480 1481 1481 1481 1482 1482 1483 1483 1482 1482 1479 1478 1476 1473 1472 1468 1466 1463 1460 1460 1449 1437 1437 1436 1437 1438 1435 1443 1443 1426 1420 1418 1414 1414 1413 1411 1409 1408 1408 1407 1406 1406 1406 1405 1403 1403
1483 1484 1484 1485 1485 1485 1485 1486 1486 1485 1486 1485 1484 1484 1484 1483 1483 1482 1483 1482 1482 1482 1482 1482 1482 1483 1480 1468 1465 1470 1469 1469 1469 1469 1472 1473 1474 1475 1475 1476 1477 1478 1478 1479 1479 1480 1481 1481 1482 1482 1481 1480 1479 1479 1477 1474 1469 1465 1466 1463 1456 1454 1445 1434 1435 1435 1435 1436 1435 1441 1440 1424 1415 1412 1411 1411 1410 1409 1407 1405 1404 1402 1401 1400 1399 1399 1398 1397
1481 1482 1483 1483 1483 1484 1484 1484 1483 1483 1483 1483 1483 1483 1482 1482 1481 1481 1480 1480 1481 1481 1481 1482 1481 1483 1480 1468 1463 1466 1465 1466 1466 1467 1469 1470 1472 1473 1474 1475 1475 1476 1477 1477 1478 1479 1480 1480 1481 1481 1480 1478 1479 1479 1478 1474 1468 1461 1461 1461 1453 1449 1444 1438 1435 1433 1433 1435 1435 1437 1434 1422 1411 1406 1408 1409 1407 1406 1403 1400 1399 1398 1396 1395 1394 1394 1394 1393
1480 1480 1481 1481 1482 1482 1482 1482 1481 1481 1482 1481 1481 1481 1480 1480 1480 1479 1478 1479 1479 1479 1480 1481 1481 1483 1476 1465 1462 1463 1463 1463 1464 1465 1466 1467 1470 1472 1473 1473 1473 1475 1475 1476 1477 1477 1478 1479 1480 1479 1478 1477 1477 1478 1480 1478 1469 1459 1454 1454 1451 1447 1447 1445 1438 1433 1433 1434 1433 1432 1428 1420 1409 1403 1403 1403 1402 1402 1398 1395 1393 1392 1391 1390 1390 1390 1389 1389
1478 1479 1479 1479 1479 1480 1480 1480 1480 1480 1480 1479 1479 1479 1479 1479 1478 1477 1476 1477 1478 1480 1481 1480 1482 1482 1469 1460 1461 1461 1460 1462 1462 1463 1465 1465 1468 1470 1472 1472 1473 1474 1474 1476 1475 1476 1478 1477 1477 1477 1476 1476 1475 1477 1480 1474 1464 1459 1456 1455 1453 1450 1449 1447 1442 1436 1433 1432 1431 1429 1425 1417 1407 1402 1399 1396 1397 1397 1392 1389 1387 1385 1385 1384 1384 1384 1384 1384
1477 1477 1477 1478 1478 1478 1478 1478 1478 1478 1478 1478 1478 1478 1477 1477 1477 1475 1475 1477 1476 1477 1477 1474 1474 1473 1463 1458 1460 1460 1459 1461 1461 1462 1463 1464 1466 1468 1470 1471 1472 1473 1474 1475 1473 1473 1476 1476 1477 1477 1474 1472 1470 1470 1470 1464 1458 1457 1456 1456 1456 1454 1449 1445 1440 1435 1432 1431 1428 1428 1425 1415 1406 1401 1396 1390 1390 1390 1387 1383 1382 1380 1380 1380 1379 1379 1379 1379
1475 1476 1476 1476 1476 1476 1476 1476 1477 1476 1476 1476 1477 1477 1476 1477 1476 1474 1474 1473 1470 1468 1467 1466 1464 1462 1460 1458 1458 1459 1460 1460 1460 1461 1461 1462 1464 1466 1469 1470 1471 1473 1472 1471 1472 1470 1472 1475 1473 1470 1468 1465 1463 1461 1459 1457 1455 1454 1454 1455 1455 1453 1448 1442 1437 1432 1430 1431 1428 1426 1423 1414 1405 1399 1393 1387 1384 1383 1382 1379 1378 1377 1376 1375 1375 1375 1375 1375
1474 1474 1474 1475 1475 1475 1475 1475 1475 1474 1474 1474 1475 1476 1477 1477 1475 1474 1473 1468 1464 1462 1462 1462 1462 1459 1458 1459 1458 1458 1459 1459 1459 1459 1460 1461 1462 1464 1467 1468 1469 1471 1468 1468 1469 1469 1471 1470 1464 1460 1460 1459 1457 1455 1454 1454 1453 1452 1454 1456 1455 1452 1447 1439 1435 1431 1429 1432 1429 1424 1421 1411 1401 1396 1389 1384 1381 1378 1375 1376 1375 1373 1372 1372 1371 1372 1372 1372
1472 1472 1473 1473 1473 1474 1473 1473 1473 1473 1472 1472 1473 1475 1475 1476 1475 1474 1473 1468 1460 1459 1459 1458 1459 1457 1454 1456 1457 1457 1458 1457 1457 1457 1457 1460 1461 1461 1462 1464 1466 1465 1464 1465 1467 1469 1470 1464 1456 1455 1455 1454 1454 1452 1452 1453 1453 1454 1455 1457 1456 1451 1445 1438 1433 1429 1431 1433 1428 1423 1420 1408 1396 1391 1386 1380 1376 1373 1371 1372 1372 1371 1370 1370 1370 1370 1370 1371
1469 1470 1471 1471 1472 1473 1472 1472 1472 1471 1471 1470 1471 1473 1474 1474 1474 1474 1474 1469 1457 1452 1454 1452 1452 1450 1449 1452 1453 1455 1455 1452 1453 1453 1454 1457 1457 1458 1459 1459 1461 1460 1460 1461 1462 1466 1465 1455 1450 1450 1450 1451 1452 1450 1451 1454 1454 1455 1456 1458 1455 1449 1447 1443 1435 1432 1432 1433 1429 1424 1419 1405 1391 1385 1381 1376 1371 1369 1370 1371 1371 1371 1370 1370 1369 1369 1369 1370
1466 1467 1469 1469 1471 1472 1471 1472 1471 1470 1469 1468 1468 1471 1473 1473 1474 1474 1473 1468 1455 1445 1444 1443 1444 1443 1442 1446 1447 1449 1448 1446 1449 1448 1449 1453 1454 1456 1456 1455 1457 1458 1456 1455 1456 1457 1453 1446 1444 1445 1446 1448 1450 1449 1451 1454 1455 1454 1452 1454 1452 1447 1447 1443 1436 1434 1433 1432 1428 1425 1421 1403 1387 1386 1382 1374 1370 1369 1370 1371 1370 1370 1369 1369 1369 1368 1369 1369
1463 1465 1466 1467 1469 1469 1471 1471 1469 1469 1468 1467 1467 1469 1472 1473 1473 1474 1473 1467 1451 1439 1438 1438 1439 1437 1436 1441 1442 1443 1444 1442 1443 1444 1444 1447 1450 1452 1453 1453 1454 1453 1451 1451 1452 1450 1445 1442 1443 1445 1445 1446 1448 1448 1449 1453 1455 1452 1447 1446 1446 1444 1443 1440 1438 1438 1440 1438 1428 1429 1436 1412 1386 1389 1387 1376 1372 1371 1370 1370 1370 1369 1368 1369 1368 1367 1368 1368
1460 1462 1463 1464 1466 1468 1470 1468 1466 1468 1466 1466 1467 1467 1471 1472 1473 1474 1474 1468 1448 1433 1434 1435 1434 1433 1432 1436 1437 1441 1445 1438 1436 1440 1442 1444 1447 1449 1450 1450 1449 1448 1448 1448 1448 1444 1439 1440 1442 1443 1445 1445 1447 1448 1446 1449 1454 1453 1444 1439 1441 1441 1442 1442 1441 1443 1446 1443 1429 1432 1445 1427 1398 1391 1387 1378 1374 1371 1371 1372 1370 1370 1369 1369 1369 1367 1367 1367
1457 1458 1460 1461 1462 1464 1465 1463 1464 1465 1465 1466 1465 1467 1470 1470 1474 1474 1473 1468 1444 1425 1430 1433 1432 1432 1431 1433 1435 1440 1443 1434 1433 1439 1440 1443 1446 1447 1448 1447 1446 1446 1445 1447 1448 1440 1433 1438 1440 1441 1443 1444 1446 1446 1443 1445 1452 1451 1441 1438 1440 1441 1443 1443 1443 1446 1445 1440 1433 1429 1436 1437 1421 1398 1383 1379 1376 1371 1372 1372 1370 1370 1370 1369 1369 1368 1368 1367
1455 1456 1457 1458 1459 1460 1460 1460 1461 1462 1464 1465 1464 1467 1468 1469 1474 1472 1475 1472 1440 1419 1428 1431 1432 1432 1431 1434 1435 1435 1437 1433 1436 1439 1439 1443 1445 1445 1446 1443 1443 1444 1442 1445 1446 1436 1432 1437 1438 1439 1443 1443 1441 1440 1439 1441 1446 1444 1439 1440 1441 1441 1443 1442 1444 1446 1442 1442 1439 1428 1428 1438 1428 1400 1382 1377 1375 1375 1373 1372 1372 1371 1371 1370 1369 1368 1368 1367
1452 1454 1455 1455 1457 1457 1457 1458 1459 1461 1462 1464 1465 1467 1467 1471 1472 1471 1483 1474 1432 1416 1428 1430 1431 1434 1433 1436 1436 1434 1436 1436 1438 1439 1440 1443 1443 1443 1444 1442 1442 1442 1441 1441 1439 1434 1434 1436 1436 1438 1440 1440 1437 1436 1436 1438 1441 1440 1440 1441 1440 1441 1442 1442 1445 1444 1444 1447 1441 1429 1428 1433 1423 1399 1385 1379 1377 1380 1376 1372 1375 1374 1373 1372 1369 1368 1368 1367
1450 1451 1453 1454 1454 1454 1454 1456 1457 1460 1461 1463 1465 1466 1467 1470 1470 1477 1487 1463 1424 1421 1431 1429 1432 1434 1434 1437 1437 1436 1437 1437 1439 1441 1442 1443 1443 1443 1443 1442 1443 1442 1441 1440 1436 1434 1435 1436 1436 1437 1436 1435 1434 1435 1435 1436 1438 1439 1440 1441 1441 1440 1439 1443 1444 1442 1448 1447 1433 1424 1424 1429 1425 1401 1382 1379 1378 1379 1377 1376 1377 1376 1375 1373 1369 1368 1368 1367
1448 1449 1450 1451 1451 1450 1450 1451 1454 1457 1460 1461 1464 1466 1468 1469 1471 1479 1472 1440 1422 1427 1429 1429 1433 1433 1434 1436 1436 1438 1438 1438 1440 1442 1444 1444 1444 1445 1444 1443 1444 1445 1445 1441 1437 1434 1434 1436 1435 1433 1433 1433 1433 1435 1436 1436 1437 1439 1441 1443 1444 1440 1437 1443 1445 1445 1453 1444 1423 1418 1420 1426 1427 1401 1379 1376 1376 1375 1376 1377 1378 1378 1378 1374 1370 1369 1368 1367
1445 1445 1446 1448 1448 1447 1446 1446 1450 1455 1458 1460 1463 1465 1467 1471 1471 1465 1447 1428 1426 1427 1423 1428 1431 1430 1433 1434 1433 1437 1438 1438 1439 1441 1443 1444 1444 1444 1443 1441 1440 1445 1447 1441 1438 1435 1431 1429 1429 1430 1430 1431 1433 1436 1439 1439 1439 1441 1443 1445 1449 1447 1443 1446 1447 1446 1447 1436 1421 1419 1421 1423 1418 1397 1382 1378 1375 1375 1375 1375 1377 1378 1377 1375 1372 1369 1367 1367
1441 1442 1443 1444 1445 1445 1443 1444 1448 1452 1455 1458 1462 1464 1467 1468 1456 1441 1432 1424 1420 1419 1418 1423 1426 1427 1432 1433 1432 1434 1436 1437 1438 1441 1441 1442 1443 1442 1441 1438 1435 1436 1436 1434 1437 1436 1429 1421 1422 1429 1429 1427 1429 1433 1437 1439 1440 1441 1442 1444 1448 1448 1447 1445 1439 1434 1430 1424 1420 1419 1420 1419 1409 1390 1380 1376 1375 1375 1373 1373 1376 1376 1376 1375 1373 1371 1368 1366
1438 1438 1439 1440 1441 1441 1441 1443 1444 1448 1453 1456 1460 1463 1466 1459 1436 1426 1429 1422 1413 1414 1417 1418 1423 1426 1429 1430 1429 1429 1434 1436 1435 1439 1441 1441 1443 1441 1438 1437 1434 1433 1433 1433 1432 1432 1429 1421 1418 1424 1424 1422 1423 1424 1427 1430 1434 1437 1434 1437 1439 1435 1437 1435 1429 1426 1424 1420 1420 1421 1418 1411 1399 1383 1372 1371 1374 1373 1372 1373 1374 1374 1375 1375 1373 1371 1368 1366
1434 1434 1435 1435 1437 1437 1438 1439 1441 1446 1449 1453 1457 1458 1456 1444 1426 1421 1424 1418 1413 1415 1416 1416 1419 1424 1427 1428 1426 1425 1429 1432 1432 1436 1439 1438 1439 1436 1434 1433 1433 1432 1434 1434 1426 1422 1422 1417 1416 1420 1418 1418 1420 1420 1421 1424 1430 1432 1429 1435 1436 1426 1426 1428 1425 1424 1427 1427 1423 1420 1412 1396 1385 1376 1367 1369 1373 1371 1373 1374 1373 1374 1373 1373 1373 1371 1368 1366
1430 1430 1431 1431 1431 1433 1434 1435 1438 1442 1443 1449 1454 1449 1438 1425 1414 1412 1410 1408 1410 1412 1416 1420 1419 1422 1426 1425 1425 1425 1425 1427 1430 1435 1436 1435 1434 1431 1427 1425 1425 1427 1429 1427 1419 1416 1417 1416 1418 1422 1419 1419 1421 1420 1421 1423 1427 1428 1428 1432 1428 1420 1421 1425 1427 1424 1428 1432 1420 1409 1404 1392 1385 1378 1365 1367 1372 1371 1373 1373 1372 1373 1372 1372 1372 1370 1369 1367
1427 1427 1427 1425 1427 1430 1431 1433 1435 1438 1440 1444 1443 1434 1423 1411 1402 1403 1401 1402 1405 1406 1413 1419 1414 1415 1419 1417 1420 1422 1423 1426 1428 1432 1435 1433 1428 1423 1421 1418 1417 1419 1419 1418 1415 1411 1411 1415 1420 1421 1420 1421 1422 1421 1421 1422 1424 1426 1428 1427 1421 1420 1422 1425 1431 1429 1429 1430 1412 1399 1399 1395 1391 1383 1366 1365 1372 1372 1372 1371 1370 1371 1371 1371 1371 1370 1369 1367
1425 1425 1422 1418 1422 1426 1429 1431 1432 1434 1437 1438 1433 1423 1415 1403 1394 1397 1400 1400 1402 1403 1408 1411 1406 1405 1408 1408 1410 1415 1419 1421 1424 1429 1431 1429 1420 1411 1412 1414 1412 1410 1412 1416 1418 1411 1408 1413 1419 1421 1422 1422 1421 1422 1423 1422 1423 1425 1425 1424 1422 1425 1425 1424 1431 1431 1428 1426 1411 1395 1391 1388 1387 1381 1368 1365 1369 1370 1370 1369 1369 1369 1369 1369 1369 1368 1368 1366
1423 1424 1416 1411 1418 1424 1427 1429 1430 1432 1433 1432 1427 1416 1405 1397 1392 1395 1398 1399 1400 1401 1404 1403 1400 1401 1401 1399 1402 1409 1413 1412 1417 1424 1423 1421 1415 1403 1402 1407 1406 1405 1408 1413 1416 1413 1409 1412 1417 1422 1423 1422 1422 1424 1423 1422 1423 1425 1426 1425 1423 1422 1421 1420 1421 1419 1417 1418 1410 1398 1391 1384 1377 1370 1366 1363 1362 1365 1367 1366 1367 1367 1366 1367 1367 1366 1366 1365
1422 1421 1410 1408 1416 1421 1425 1428 1428 1429 1426 1419 1414 1406 1397 1393 1391 1392 1395 1398 1398 1397 1397 1396 1396 1397 1397 1395 1398 1403 1406 1406 1409 1415 1414 1411 1407 1399 1397 1401 1402 1403 1406 1410 1413 1413 1412 1411 1414 1422 1425 1422 1420 1418 1414 1413 1416 1422 1426 1426 1422 1419 1417 1417 1415 1409 1409 1413 1409 1403 1397 1383 1367 1361 1362 1361 1359 1360 1362 1363 1365 1365 1365 1366 1366 1365 1365 1364
1421 1418 1407 1406 1413 1417 1422 1425 1421 1420 1416 1409 1405 1400 1394 1390 1389 1391 1394 1395 1395 1394 1393 1393 1392 1392 1394 1395 1396 1397 1402 1403 1403 1407 1408 1404 1401 1399 1396 1395 1399 1402 1406 1411 1413 1412 1413 1411 1410 1418 1424 1420 1412 1407 1406 1406 1406 1411 1416 1417 1415 1414 1415 1418 1416 1407 1406 1408 1402 1400 1397 1379 1363 1359 1360 1359 1358 1357 1358 1361 1362 1363 1363 1364 1364 1364 1364 1363
1417 1413 1405 1406 1410 1412 1415 1415 1411 1411 1408 1400 1396 1392 1390 1388 1390 1391 1391 1392 1393 1392 1392 1392 1390 1389 1389 1391 1392 1393 1396 1399 1400 1401 1401 1397 1393 1394 1393 1393 1396 1400 1404 1410 1410 1407 1410 1412 1411 1411 1413 1412 1409 1406 1407 1407 1405 1407 1409 1408 1409 1410 1409 1413 1412 1406 1404 1404 1397 1399 1398 1377 1362 1361 1361 1360 1359 1358 1358 1360 1361 1362 1362 1362 1362 1362 1362 1361
1411 1407 1404 1405 1407 1408 1408 1406 1406 1405 1398 1392 1390 1388 1388 1388 1389 1389 1389 1390 1390 1388 1390 1391 1389 1388 1386 1386 1388 1391 1393 1395 1396 1396 1395 1392 1389 1388 1390 1392 1394 1398 1402 1407 1407 1407 1410 1413 1414 1411 1405 1406 1409 1408 1407 1406 1405 1405 1405 1405 1406 1404 1402 1403 1402 1401 1403 1401 1399 1403 1397 1374 1360 1361 1361 1361 1361 1359 1359 1359 1360 1361 1360 1360 1360 1359 1360 1360
1407 1405 1404 1404 1405 1405 1401 1397 1397 1395 1392 1392 1391 1390 1390 1387 1385 1385 1385 1386 1385 1385 1388 1388 1386 1385 1384 1384 1386 1388 1389 1390 1390 1389 1388 1389 1388 1387 1388 1390 1392 1394 1398 1401 1402 1405 1409 1411 1414 1417 1413 1409 1409 1409 1408 1407 1406 1403 1399 1400 1401 1399 1400 1399 1398 1401 1402 1396 1395 1399 1389 1369 1360 1360 1359 1360 1360 1359 1359 1359 1359 1360 1359 1359 1359 1359 1360 1360
1404 1402 1401 1400 1400 1400 1394 1389 1390 1388 1389 1393 1391 1388 1389 1385 1381 1381 1382 1382 1382 1383 1383 1382 1381 1380 1380 1382 1385 1385 1384 1383 1383 1383 1383 1386 1388 1388 1389 1389 1390 1391 1392 1396 1397 1400 1407 1407 1408 1414 1414 1406 1400 1400 1400 1400 1401 1400 1395 1394 1395 1396 1398 1397 1398 1403 1400 1390 1388 1387 1377 1366 1360 1358 1358 1357 1356 1357 1357 1356 1358 1359 1359 1359 1358 1359 1360 1359
1401 1398 1396 1395 1395 1393 1389 1388 1388 1385 1385 1388 1385 1383 1385 1382 1379 1379 1381 1380 1379 1379 1378 1376 1377 1379 1380 1381 1383 1383 1380 1379 1380 1381 1383 1386 1387 1388 1390 1389 1390 1390 1390 1393 1395 1399 1407 1407 1403 1404 1401 1393 1387 1385 1384 1387 1392 1394 1391 1390 1391 1390 1391 1394 1396 1395 1391 1388 1384 1375 1371 1370 1364 1359 1358 1356 1356 1357 1356 1356 1357 1358 1358 1358 1358 1359 1359 1359
1398 1394 1391 1389 1388 1387 1386 1387 1386 1383 1381 1380 1376 1375 1376 1377 1378 1379 1377 1375 1374 1375 1375 1373 1373 1375 1376 1377 1379 1379 1378 1379 1381 1382 1383 1385 1386 1388 1390 1390 1390 1390 1390 1392 1393 1398 1408 1406 1399 1398 1395 1388 1385 1383 1381 1384 1387 1387 1387 1388 1387 1386 1388 1391 1389 1383 1383 1388 1379 1366 1367 1371 1365 1361 1360 1357 1358 1359 1357 1357 1357 1357 1357 1357 1357 1357 1358 1358
1395 1390 1387 1385 1383 1382 1381 1381 1381 1380 1380 1378 1373 1370 1370 1370 1373 1374 1372 1371 1370 1371 1372 1370 1369 1368 1368 1370 1373 1374 1376 1379 1380 1380 1381 1382 1384 1387 1389 1390 1390 1389 1390 1392 1390 1394 1403 1399 1391 1395 1395 1387 1386 1387 1384 1385 1386 1385 1385 1385 1385 1385 1384 1383 1380 1377 1380 1381 1371 1363 1365 1366 1363 1362 1360 1358 1359 1358 1357 1357 1357 1356 1356 1356 1356 1356 1356 1356
1391 1387 1385 1384 1381 1379 1376 1377 1378 1376 1376 1376 1372 1369 1367 1365 1364 1364 1366 1368 1367 1365 1366 1365 1363 1363 1364 1365 1367 1367 1369 1372 1375 1375 1375 1376 1379 1383 1386 1386 1388 1388 1389 1391 1390 1390 1396 1392 1387 1392 1393 1386 1385 1385 1385 1388 1388 1386 1386 1385 1383 1382 1378 1375 1374 1373 1376 1373 1365 1365 1366 1360 1358 1359 1357 1357 1358 1356 1356 1356 1355 1355 1355 1354 1355 1355 1354 1355
1389 1386 1384 1383 1381 1379 1377 1376 1376 1374 1372 1371 1369 1366 1365 1363 1360 1360 1360 1360 1360 1359 1361 1360 1359 1360 1361 1361 1360 1358 1358 1362 1365 1367 1369 1372 1374 1376 1378 1377 1381 1387 1388 1389 1390 1390 1391 1388 1384 1388 1391 1384 1379 1380 1383 1387 1388 1387 1386 1382 1380 1378 1374 1372 1370 1371 1373 1369 1364 1369 1366 1354 1353 1356 1355 1356 1357 1355 1355 1354 1353 1354 1354 1353 1353 1353 1353 1354
1386 1384 1385 1384 1380 1378 1376 1374 1374 1372 1369 1367 1365 1363 1361 1357 1356 1359 1357 1353 1354 1355 1355 1355 1357 1358 1358 1357 1354 1352 1354 1357 1358 1359 1361 1364 1365 1365 1366 1367 1372 1382 1386 1387 1388 1388 1389 1387 1384 1387 1388 1378 1371 1377 1380 1381 1385 1389 1381 1370 1370 1372 1368 1367 1367 1367 1367 1365 1366 1369 1358 1345 1349 1355 1353 1354 1355 1354 1354 1353 1352 1351 1350 1351 1352 1353 1354 1354
1384 1382 1383 1383 1380 1376 1375 1373 1372 1371 1367 1364 1362 1362 1361 1357 1356 1358 1354 1348 1348 1350 1351 1351 1353 1355 1354 1351 1348 1349 1353 1354 1354 1356 1357 1357 1357 1357 1359 1361 1364 1370 1377 1381 1384 1384 1385 1386 1384 1384 1382 1372 1367 1373 1375 1379 1387 1381 1359 1347 1354 1361 1361 1363 1362 1358 1357 1358 1360 1356 1343 1337 1346 1351 1350 1352 1353 1352 1352 1353 1352 1351 1349 1351 1352 1354 1355 1355